NOAA 11 - Orbit

View from above orbital plane
View from above orbital plane
View from above satellite
View from above satellite

Ground track
Ground track

The orbit data is extracted from the following two-line orbital elements,

1 19531U 88089A   13140.30280112  .00000052  00000-0  49304-4 0  3634
2 19531 098.7111 223.9919 0010592 346.5637 044.3069 14.15014840272188
Epoch (UTC): 20 May 2013 07:16:02
Eccentricity: 0.0010592
inclination: 98.7111°
perigee height: 834 km
apogee height: 850 km
right ascension of ascending node: 223.9919°
argument of perigee: 346.5637°
revolutions per day: 14.15014840
mean anomaly at epoch: 44.3069°
orbit number at epoch: 27218

The dashed part of the orbit path shows where the satellite is in the earth's shadow,  

Developed and maintained by Chris Peat, Heavens-Above GmbH. Please read the updated FAQ before sending e-mail. Imprint. DLR